Find Starlink 4728

NORAD ID: 53793 Int'l Des: 2022-111 Owner: SPXS Country: US Constellation: starlink operational
LEOCIRCULAR

現在のビュー

3D地球を読み込み中...

About Starlink 4728

Starlink 4728 (NORAD 53793) is a starlink constellation satellite (v1.5) launched Sep 11, 2022 by SPXS of US. It operates in LEO, CIRCULAR orbit with a mass of 305.00 kg.

Starlink 4728について

説明を読み込み中...

次回通過

Passes for default location (London). Set your location on the main map for personalized predictions.

高度履歴

Loading altitude history...

軌道要素

1 53793U 22111W 26167.35212617 -.00000239 00000-0 30705-5 0 9998
2 53793 53.1593 190.9168 0001080 73.5638 286.5472 15.08824676208584
Epoch: Jun 16, 2026 • Age: 10 hours

現在のステータス

高度 539.6 km
速度 7.60 km/s
衛星直下点 17.96°N, 26.73°E
打ち上げ日 Sep 11, 2022
運用期間 3.7 years
タイプ internet

技術仕様

分類 Payload
質量 305.00 kg
乾燥質量 290.00 kg
総質量 305.00 kg
長さ 0.20 m
直径 2.80 m
スパン 9.00 m
形状 Box + pan
製造者 SPXS
バスタイプ Starlink
フェーズステータス In Orbit
所有者/国 SPXS/US

Most Searched